SCP
0 0 0 0 0 0 0 0 0 0 0 1 1 3 3 3 3 3 3 3 3 3 3 4 4 4 3 3 3 3 3 2 2 2 2 2 2 1 1 1 2 2 2 2
0 0 0 0 0 0 0 0 0 0 0 1 2 3 4 3 3 3 3 3 3 2 3 4 4 4 4 3 3 3 4 3 3 2 2 2 2 2 2 2 2 2 2 2
0 0 0 0 0 0 0 0 0 0 1 2 3 4 4 3 3 4 4 3 2 2 3 4 4 4 3 4 4 4 4 4 4 3 3 3 3 2 2 2 2 2 2 2
0 0 0 0 0 0 0 0 1 1 2 3 4 4 4 3 3 4 4 3 2 2 3 5 5 3 3 3 4 5 5 5 5 4 4 4 4 4 3 2 2 2 2 2
0 0 0 0 0 0 0 1 1 2 3 3 3 3 2 2 3 4 4 2 2 2 5 6 5 3 2 2 3 4 5 6 6 5 5 5 6 5 4 2 2 2 2 2
0 0 0 0 0 0 1 1 2 2 3 3 2 2 2 2 3 3 3 2 2 4 6 6 5 3 2 2 3 4 5 5 6 6 6 6 7 7 5 3 2 3 3 3
0 0 0 0 0 1 1 2 2 2 2 3 3 3 2 3 3 3 2 2 2 5 7 7 5 3 2 2 3 3 3 3 4 5 7 8 9 8 6 4 3 3 3 3
0 0 0 0 1 1 1 2 3 2 3 4 4 4 3 3 3 3 3 3 3 5 7 6 4 3 2 3 3 3 3 3 3 4 6 9 10 9 7 4 3 3 3 3
0 0 0 0 0 1 2 3 3 3 3 3 4 4 3 3 4 4 5 5 5 6 6 5 3 3 3 3 4 4 3 3 3 4 5 7 10 9 7 4 3 3 3 3
0 0 0 0 0 1 3 4 4 3 3 3 3 3 3 3 3 5 6 6 6 6 5 4 3 3 4 5 5 4 3 2 3 4 4 6 7 7 6 4 4 4 4 4
0 0 0 1 0 1 2 3 3 2 3 4 3 3 3 3 3 5 6 7 7 5 4 3 3 4 4 5 4 3 2 2 3 4 5 5 5 4 4 4 4 4 4 4
0 0 0 0 0 1 2 2 2 2 4 4 4 3 3 3 4 5 6 7 7 6 4 4 4 4 4 3 3 2 2 2 3 4 4 4 4 3 3 3 2 2 3 3
0 0 0 0 0 1 1 2 2 2 4 4 4 3 3 3 3 5 7 7 7 6 5 4 4 4 3 3 2 2 2 2 3 3 3 3 3 3 3 3 3 2 2 2
0 0 0 0 0 1 1 1 1 2 3 4 3 3 3 3 4 6 7 7 6 5 4 4 4 4 4 3 3 3 3 3 3 3 3 4 4 4 4 4 4 4 3 2
0 0 0 0 0 1 1 1 1 2 3 3 3 3 4 4 4 6 6 6 5 4 3 3 3 3 4 3 3 4 5 5 5 5 5 5 4 4 4 4 5 5 5 4
0 0 0 0 0 1 1 1 1 1 2 2 2 3 4 4 4 5 5 5 4 3 3 2 2 3 3 4 4 5 6 5 5 5 5 4 4 4 4 4 5 5 6 6
0 0 0 0 0 1 1 1 1 2 3 2 2 2 3 3 4 4 4 4 3 2 2 2 2 3 4 4 5 6 6 6 5 5 4 4 4 4 4 4 5 5 5 5
0 1 1 0 0 1 1 1 2 3 3 2 2 2 3 3 3 3 3 3 2 2 2 2 2 3 3 4 4 5 5 6 5 5 4 4 4 4 4 4 4 4 4 4
0 1 1 1 1 1 2 2 2 2 2 2 2 2 3 3 3 3 3 2 1 1 1 1 1 2 3 3 3 3 4 4 4 3 2 2 2 2 2 2 2 2 2 2
0 1 1 1 1 1 2 2 2 2 2 2 2 2 2 3 3 2 2 1 1 1 1 1 1 1 1 1 2 2 2 2 2 1 1 1 1 1 1 1 1 1 1 1
0 0 1 1 1 1 2 2 3 2 2 2 2 2 2 2 2 2 1 1 1 1 1 0 0 0 1 1 1 1 1 1 1 0 0 0 0 0 0 0 0 0 0 0
0 0 0 0 1 1 1 1 2 2 2 1 1 1 1 1 1 1 1 0 0 0 0 0 0 0 0 0 0 0 0 0 0 0 0 0 0 0 0 0 0 0 0 0
0 0 0 0 0 0 0 1 1 1 1 1 1 1 1 1 1 1 0 0 0 0 0 0 0 0 0 0 0 0 0 0 0 0 0 0 0 0 0 0 0 0 0 0
0 0 0 0 0 0 0 1 1 1 1 1 1 1 1 0 0 0 0 0 0 0 0 0 0 0 0 0 0 0 0 0 0 0 0 0 0 0 0 0 0 0 0 0
0 0 0 0 0 0 0 0 0 0 0 0 0 0 0 0 0 0 0 0 0 0 0 0 0 0 0 0 0 0 0 0 0 0 0 0 0 0 0 0 0 0 0 0
0 0 0 0 0 0 0 0 0 0 0 0 0 0 0 0 0 0 0 0 0 0 0 0 0 0 0 0 0 0 0 0 0 0 0 0 0 0 0 0 0 0 0 0
0 0 0 0 0 0 0 0 0 0 0 0 0 0 0 0 0 0 0 0 0 0 0 0 0 0 0 0 0 0 0 0 0 0 0 0 0 0 0 0 0 0 0 0
Wind_Speed
4 4 2 3 4 5 6 7 8 7 7 8 6 5 4 2 2 2 2 3 4 5 4 4 4 4 4 4 4 5 5 5 5 4 4 3 3 3 3 2 3 3 2 2
2 2 2 3 4 5 4 4 4 3 6 7 3 1 1 2 4 4 4 4 4 4 5 5 5 4 3 3 3 4 4 4 3 3 3 4 4 3 2 2 2 2 2 2
3 3 2 4 5 5 3 3 6 6 7 3 1 2 4 5 5 5 5 4 4 5 5 5 5 5 5 4 4 4 4 3 3 3 3 3 3 3 3 3 2 3 3 2
2 1 5 8 2 3 4 3 3 3 4 3 4 3 3 3 4 4 4 4 4 4 5 4 4 4 3 3 3 4 3 3 3 3 3 3 2 3 3 2 2 2 2 2
4 3 6 5 1 2 3 3 2 3 3 2 1 3 3 2 2 4 3 3 4 5 5 4 4 4 4 3 3 3 3 3 3 3 4 3 3 2 2 1 1 1 1 1
4 4 7 7 3 2 3 4 2 2 2 2 2 0 5 2 1 2 2 2 2 3 3 4 3 4 4 4 3 4 4 4 4 4 4 4 3 2 2 2 1 1 1 1
4 4 7 5 5 1 4 7 3 2 2 3 4 5 4 2 2 1 1 2 2 3 3 3 4 4 4 4 4 4 3 3 4 4 4 4 3 2 2 2 2 1 0 1
4 3 7 3 1 3 5 3 2 1 2 3 3 2 2 1 1 1 1 0 2 2 1 1 3 5 4 4 4 2 2 3 3 3 4 4 4 3 2 3 2 1 1 1
7 7 4 2 3 3 2 2 2 2 2 2 2 2 1 1 1 1 1 1 1 2 1 1 2 4 4 4 2 2 2 2 2 2 3 4 4 4 3 2 2 2 1 1
2 4 4 4 2 2 2 3 3 2 1 2 2 2 2 1 0 0 0 1 1 1 1 1 1 2 3 3 2 3 3 2 2 3 3 3 3 3 3 3 3 2 2 2
3 5 4 4 3 4 4 3 3 2 1 1 1 2 2 1 1 1 1 1 1 2 2 1 1 1 2 2 3 3 3 3 3 3 3 3 2 1 2 3 4 4 3 3
6 6 4 5 4 3 3 3 3 2 3 2 1 2 2 2 2 2 1 1 1 1 2 1 1 1 1 2 3 4 3 2 2 2 2 2 2 1 2 0 1 3 4 4
6 4 5 5 4 2 2 3 3 2 1 2 1 1 1 2 1 1 1 1 2 2 2 1 1 1 1 1 3 3 3 2 2 2 2 3 3 3 1 2 4 2 1 2
5 3 3 4 4 3 2 3 2 2 2 1 1 1 1 1 1 1 1 1 1 1 1 1 1 1 1 1 2 3 3 3 2 2 2 2 2 2 2 2 1 1 2 1
5 4 5 4 3 2 2 1 1 3 3 2 1 0 1 1 2 2 1 0 1 0 0 1 1 1 0 1 2 3 3 2 2 2 2 2 2 2 2 2 1 1 1 1
4 3 3 2 3 3 2 2 2 3 3 2 2 1 1 1 1 1 1 2 2 1 1 1 1 1 2 2 1 1 2 3 3 2 2 2 2 2 2 2 2 1 1 1
3 4 4 4 4 3 3 3 3 3 2 2 2 2 0 1 1 0 1 0 1 0 0 1 1 1 1 3 3 2 1 2 3 2 2 2 3 3 3 2 2 2 2 2
6 6 5 5 4 4 3 3 2 2 2 2 1 0 1 2 2 1 1 1 1 2 1 1 1 1 2 3 3 2 2 2 2 2 2 2 2 2 3 2 3 3 2 1
2 2 3 3 3 2 2 2 2 2 2 1 1 1 1 1 1 1 1 1 0 2 2 1 1 2 2 2 2 2 2 2 2 1 2 2 2 2 2 2 2 2 2 2
1 1 1 2 2 1 2 2 2 2 1 1 1 1 0 1 1 1 0 1 2 2 1 0 0 0 1 2 3 2 2 3 2 2 2 2 2 1 1 2 2 2 2 2
1 1 1 1 1 1 2 2 2 1 1 1 2 2 2 1 1 1 1 1 3 1 0 1 0 1 1 2 3 2 3 3 2 2 2 2 2 1 1 1 1 1 1 2
1 1 1 1 1 1 2 1 1 2 1 1 0 1 1 1 1 0 0 2 2 0 0 1 1 1 1 2 2 2 2 2 2 2 2 2 2 2 1 1 1 1 1 1
1 1 1 1 1 2 1 1 1 1 1 1 1 1 1 1 1 1 1 1 0 1 0 0 1 2 3 2 2 2 2 2 2 2 2 2 1 1 1 2 1 1 2 2
1 0 0 0 1 1 0 1 1 0 0 0 1 1 1 1 1 1 1 0 1 1 1 0 2 2 3 2 2 2 2 2 2 2 2 1 1 1 1 2 2 2 2 2
1 1 1 1 1 1 1 0 0 0 1 1 1 1 0 1 1 1 0 1 1 1 1 1 2 2 2 2 2 1 1 1 2 2 2 2 2 2 2 2 2 2 1 1
1 1 1 1 2 2 1 1 1 0 0 0 1 1 0 0 0 0 1 1 2 1 1 1 1 2 2 2 1 1 1 1 1 1 2 2 2 2 1 2 2 2 2 2
0 0 0 1 1 1 1 2 2 1 2 2 1 0 0 1 1 1 1 1 1 1 1 1 1 1 1 1 1 0 0 0 0 0 1 1 1 1 2 2 2 2 2 2
Wind_Direction
231 242 209 214 211 187 187 187 187 223 227 254 261 245 236 213 182 165 164 166 179 184 181 176 175 179 181 182 180 178 181 193 206 214 213 214 213 215 219 216 222 219 214 220
286 283 270 256 241 200 207 193 206 227 256 258 271 251 221 202 185 191 195 190 189 184 178 179 183 187 186 188 182 170 181 202 202 194 204 210 209 203 204 218 223 215 213 213
247 294 9 265 233 203 204 206 181 210 235 253 273 235 217 207 197 198 198 195 194 194 191 192 187 183 190 192 177 174 190 199 192 189 198 208 206 192 203 216 211 216 222 214
154 92 227 243 242 185 187 220 220 234 244 234 233 247 246 209 195 205 203 193 197 199 197 196 183 176 182 165 164 179 192 202 203 199 205 202 190 200 209 203 209 223 230 227
137 188 263 287 260 156 176 253 235 234 261 263 353 12 318 267 203 205 210 208 204 199 193 184 174 169 155 160 166 178 194 197 198 201 203 193 191 209 210 181 208 238 243 234
143 172 227 243 269 249 135 270 265 202 225 228 98 2 270 280 251 218 208 206 204 179 165 173 183 163 158 174 177 195 201 197 192 193 196 192 191 193 177 165 194 204 270 264
173 209 254 265 293 79 165 243 269 213 210 184 193 219 246 274 268 207 189 194 172 154 166 186 173 156 162 179 200 208 196 182 182 190 190 184 177 175 166 167 160 156 182 288
157 195 249 298 51 172 222 259 273 253 227 206 219 242 248 245 232 128 99 159 146 139 171 191 165 156 172 202 215 196 177 175 180 181 177 165 161 170 167 164 160 174 185 308
189 212 241 259 230 253 242 263 276 276 264 203 212 232 236 225 214 196 187 198 154 144 154 212 187 171 186 219 200 159 161 177 178 168 167 165 166 169 167 170 173 191 200 231
263 267 272 288 298 312 292 270 280 267 228 174 203 228 239 232 280 270 209 208 148 126 139 253 241 203 207 211 174 157 172 181 175 166 164 160 165 171 174 184 188 196 207 222
262 277 309 315 317 307 311 325 338 343 331 221 176 224 217 203 213 203 189 202 160 155 184 232 248 237 213 190 165 165 179 183 175 172 166 157 149 168 188 204 197 195 211 211
229 232 215 254 268 288 305 310 308 332 348 344 187 225 231 218 217 209 197 207 178 162 172 205 203 240 228 186 169 167 175 183 174 168 159 152 144 87 47 145 183 198 206 208
232 238 225 250 269 276 281 293 306 302 280 285 268 210 208 224 233 203 190 192 194 198 190 173 162 254 269 196 170 170 173 175 167 168 170 166 166 160 141 42 51 64 118 177
239 228 254 254 255 269 278 288 305 311 304 280 246 220 179 186 223 203 209 230 222 188 173 148 143 261 271 179 161 164 161 162 163 172 172 168 172 169 163 159 108 31 21 52
258 231 230 252 270 279 277 277 328 330 326 340 339 281 189 188 205 228 225 167 119 109 170 137 133 275 349 147 162 162 157 161 160 160 159 157 156 154 156 160 157 143 39 13
263 265 240 239 255 271 277 279 288 303 309 309 319 310 285 223 201 209 196 164 150 170 214 154 209 237 127 118 140 146 139 158 159 154 155 153 157 163 170 173 183 200 212 222
219 245 249 251 254 261 259 252 251 268 282 279 282 300 318 123 123 191 266 216 150 180 210 196 222 227 160 146 146 160 158 164 165 164 173 178 181 187 190 190 202 219 231 226
216 221 226 224 226 236 256 263 260 266 264 246 239 215 192 182 189 217 260 6 39 9 321 262 208 180 172 160 152 162 169 172 173 179 187 190 191 192 193 196 207 222 240 231
239 229 236 235 222 216 236 256 266 267 269 210 186 204 219 221 210 220 198 105 200 265 276 273 212 178 168 163 156 156 161 165 167 174 186 187 191 193 199 203 209 219 224 222
284 258 232 243 240 216 233 254 262 279 277 215 182 164 179 270 245 225 204 243 255 251 241 256 245 171 164 157 149 147 154 164 174 179 176 178 192 202 213 216 215 219 225 225
270 261 232 222 249 257 248 241 228 235 233 159 169 187 214 256 262 205 135 295 299 301 175 158 167 174 155 150 144 146 153 159 170 174 173 176 182 192 198 204 209 206 215 222
256 246 242 217 211 265 278 261 211 192 173 137 178 198 201 248 272 351 274 246 272 297 117 140 147 142 136 128 132 143 152 155 160 158 162 171 178 191 205 207 204 208 218 217
274 250 242 209 210 241 281 279 247 214 191 187 206 217 212 223 206 167 287 299 304 82 74 150 144 133 128 117 124 135 147 153 163 173 183 188 186 187 196 202 208 213 214 213
268 274 270 176 134 124 181 262 279 263 188 183 213 199 164 128 345 292 230 108 70 77 55 86 122 123 122 123 129 134 144 156 169 182 183 179 178 178 183 190 203 210 203 204
249 210 159 136 138 192 208 223 61 68 70 51 19 3 336 193 214 253 161 126 112 99 63 67 97 102 108 117 124 130 137 159 175 178 175 176 184 186 192 201 210 213 203 207
248 229 225 223 215 213 198 171 170 260 82 32 331 318 332 47 125 128 92 99 103 93 74 61 86 100 100 103 109 120 133 136 165 186 185 182 187 197 206 208 213 220 220 219
248 248 318 331 311 242 192 175 183 206 205 183 178 281 95 93 87 85 90 93 93 88 84 83 106 118 111 105 109 120 151 181 178 179 188 189 192 203 213 221 225 219 215 215